To NAV CANADA Home Page Login to a new session Search on AWWS site Feedback and Comments Disclaimer Vers la page française équivalente Tips FAQ What's new on the site To the Forecasts and Observations / NOTAM section To "File a Flight Plan" website Publications and other links Update of the User's profile FIC Telephone Numbers My Weather Data Folder Route Weather Data Regional Weather Data Local Weather Data To the Forecasts and Observations / NOTAM section
Request Generated 03/23/2017 at 00:10:52 UTC . Weather information available at that time is displayed.

METAR/TAF

DAWSON CITY/YT    

LWIS CYDA 230000Z AUTO 22006KT M09/M17 A2976=
METAR CYDA 222300Z 22003KT 20SM OVC080 M09/M17 A2978 RMK AC8 CLIMAT
-9.5/-20.5/TR CM/TR MWE LAST STFD OBS/NXT231400Z SLP122=
METAR CYDA 222200Z 20002KT 20SM OVC080 M10/M18 A2980 RMK AC8 SLP131=

*** REMARK        : Forecast period has ended; this was the last TAF issued
*** REMARQUE : La période de prévision est échue; ceci était le dernier TAF qui a été émis
TAF CYDA 221738Z 2218/2223 VRB02KT P6SM FEW050 BKN070 TEMPO 2220/2223
BKN050
RMK NXT FCST WILL BE ISSUED AT 231545Z=
Your time UTC time
Weather data provided by Environment Canada and NAV CANADA